Coolangatta, Queensland

6:02 PM AEST on September 30, 2016 (GMT +1000)
Coolangatta

Weather History for 94592 - August, 2013

Change the Weather History Date:

Monday, August 19, 2013

  Actual Average Record
Temperature  
Mean Temperature 64 °F -  
Max Temperature 77 °F - - ()
Min Temperature 50 °F - - ()
Degree Days  
Heating Degree Days 2    
Growing Degree Days 14 (Base 50)    
Moisture  
Dew Point 51 °F    
Average Humidity 71    
Maximum Humidity 100    
Minimum Humidity 16    
Precipitation  
Precipitation 0.00 in - - ()
Sea Level Pressure  
Sea Level Pressure 29.94 in    
Wind  
Wind Speed 4 mph ()    
Max Wind Speed 16 mph    
Max Gust Speed -    
Visibility 6.0 miles    
Events      
T = Trace of Precipitation, MM = Missing Value Source: Averaged Metar Reports

Daily Weather History Graph

Daily Weather History Graph

Search for Another Location

Airport or City:

Trip Planner

Search our weather history database for the weather conditions in past years. The results will help you decide how hot, cold, wet, or windy it might be!

Date:

Astronomy

Aug. 19, 2013 Rise Set
Actual Time 6:13 AM AEST 5:25 PM AEST
Civil Twilight 5:49 AM AEST 5:49 PM AEST
Nautical Twilight 5:22 AM AEST 6:17 PM AEST
Astronomical Twilight 4:54 AM AEST 6:44 PM AEST
Moon 3:30 PM AEST (8/19) 4:12 AM AEST (8/19)
Length of Visible Light 12h 00m
Length of Day
11h 11m
Waxing Gibbous, 94% of the Moon is Illuminated
Aug 19
Waxing Gibbous
Aug 21
Full
Aug 28
Last Quarter
Sep 5
New
Sep 13
First Quarter

Hourly Weather History & Observations

Time (AEST) Temp. Dew Point Humidity Pressure Visibility Wind Dir Wind Speed Gust Speed Precip Events Conditions
12:00 AM 55 °F 53 °F 92% 30.04 in - Calm Calm - -  
12:00 AM 55.4 °F 53.6 °F 94% 30.04 in 6.2 mi Calm Calm - N/A   Unknown
12:30 AM 55.4 °F 53.6 °F 94% 30.04 in 6.2 mi SW 3.5 mph - N/A   Mostly Cloudy
1:00 AM 55.4 °F 51.8 °F 88% 30.01 in 6.2 mi SW 1.2 mph - N/A   Scattered Clouds
1:30 AM 53.6 °F 51.8 °F 94% 30.01 in 6.2 mi Calm Calm - N/A   Unknown
1:45 AM 51.8 °F 50.0 °F 94% 30.01 in 3.7 mi Calm Calm - N/A   Unknown
2:00 AM 51.8 °F 50.0 °F 94% 30.01 in 6.2 mi Calm Calm - N/A   Scattered Clouds
2:05 AM 53.6 °F 51.8 °F 94% 30.01 in 6.2 mi Calm Calm - N/A   Scattered Clouds
2:30 AM 53.6 °F 51.8 °F 94% 30.01 in 6.2 mi Calm Calm - N/A   Scattered Clouds
2:41 AM 53.6 °F 51.8 °F 94% 29.98 in 3.7 mi Calm Calm - N/A   Unknown
3:00 AM 51 °F 49 °F 91% 30.00 in - Calm Calm - -  
3:00 AM 51.8 °F 50.0 °F 94% 29.98 in 6.2 mi Calm Calm - N/A   Unknown
3:30 AM 53.6 °F 51.8 °F 94% 29.98 in 6.2 mi WSW 4.6 mph - N/A   Unknown
4:00 AM 53.6 °F 53.6 °F 100% 29.98 in 4.3 mi SSW 2.3 mph - N/A   Scattered Clouds
4:11 AM 53.6 °F 51.8 °F 94% 29.98 in - Calm Calm - N/A   Scattered Clouds
4:30 AM 53.6 °F 51.8 °F 94% 29.98 in 4.3 mi South 1.2 mph - N/A   Scattered Clouds
4:33 AM 53.6 °F 51.8 °F 94% 29.98 in 6.2 mi SSW 2.3 mph - N/A   Scattered Clouds
5:00 AM 51.8 °F 50.0 °F 94% 29.98 in 6.2 mi West 4.6 mph - N/A   Unknown
5:30 AM 53.6 °F 53.6 °F 100% 30.01 in 6.2 mi West 6.9 mph - N/A   Unknown
6:00 AM 55 °F 53 °F 92% 30.02 in - WNW 8.1 mph - -  
6:00 AM 55.4 °F 53.6 °F 94% 30.01 in 6.2 mi WNW 8.1 mph - N/A   Unknown
6:30 AM 57.2 °F 55.4 °F 94% 30.01 in 6.2 mi WNW 6.9 mph - N/A   Unknown
7:00 AM 59.0 °F 57.2 °F 94% 30.01 in 6.2 mi West 5.8 mph - N/A   Unknown
7:30 AM 64.4 °F 60.8 °F 88% 30.01 in 6.2 mi WNW 5.8 mph - N/A   Unknown
8:00 AM 66.2 °F 59.0 °F 78% 30.01 in 6.2 mi West 6.9 mph - N/A   Unknown
8:30 AM 68.0 °F 60.8 °F 78% 30.01 in 6.2 mi WNW 8.1 mph - N/A   Unknown
9:00 AM 70 °F 59 °F 61% 30.02 in - NNW 10.4 mph - -  
9:00 AM 69.8 °F 59.0 °F 68% 30.01 in 6.2 mi NNW 10.4 mph - N/A   Unknown
9:30 AM 71.6 °F 59.0 °F 64% 30.01 in 6.2 mi NNW 10.4 mph - N/A   Unknown
10:00 AM 71.6 °F 59.0 °F 64% 29.98 in 6.2 mi NW 9.2 mph - N/A   Unknown
10:30 AM 73.4 °F 59.0 °F 61% 29.98 in 6.2 mi NNW 9.2 mph - N/A   Unknown
11:00 AM 73.4 °F 59.0 °F 61% 29.95 in 6.2 mi North 10.4 mph - N/A   Unknown
11:30 AM 71.6 °F 59.0 °F 64% 29.92 in 6.2 mi North 11.5 mph - N/A   Unknown
12:00 PM 73 °F 60 °F 54% 29.91 in - North 13.8 mph - -  
12:00 PM 73.4 °F 60.8 °F 65% 29.89 in 6.2 mi North 13.8 mph - N/A   Unknown
12:30 PM 75.2 °F 53.6 °F 47% 29.89 in 6.2 mi North 12.7 mph - N/A   Unknown
1:00 PM 77.0 °F 46.4 °F 34% 29.86 in 6.2 mi NW 12.7 mph - N/A   Unknown
1:30 PM 77.0 °F 46.4 °F 34% 29.86 in 6.2 mi NW 10.4 mph - N/A   Unknown
2:00 PM 77.0 °F 41.0 °F 28% 29.83 in 6.2 mi NW 12.7 mph - N/A   Unknown
2:30 PM 77.0 °F 39.2 °F 26% 29.83 in 6.2 mi NW 13.8 mph - N/A   Unknown
3:00 PM 77 °F 40 °F 16% 29.83 in - NW 13.8 mph - -  
3:00 PM 77.0 °F 39.2 °F 26% 29.83 in 6.2 mi NW 13.8 mph - N/A   Unknown
3:30 PM 75.2 °F 39.2 °F 27% 29.83 in 6.2 mi NW 16.1 mph - N/A   Unknown
4:00 PM 75.2 °F 42.8 °F 31% 29.83 in 6.2 mi NW 8.1 mph - N/A   Unknown
4:30 PM 75.2 °F 39.2 °F 27% 29.83 in 6.2 mi NW 6.9 mph - N/A   Unknown
5:00 PM 71.6 °F 57.2 °F 60% 29.83 in 6.2 mi North 10.4 mph - N/A   Unknown
5:30 PM 68.0 °F 50.0 °F 52% 29.83 in 6.2 mi NNW 4.6 mph - N/A   Unknown
6:00 PM 63 °F 46 °F 43% 29.85 in - West 5.8 mph - -  
6:00 PM 62.6 °F 46.4 °F 55% 29.83 in 6.2 mi West 5.8 mph - N/A   Unknown
6:30 PM 60.8 °F 50.0 °F 68% 29.86 in 6.2 mi WSW 8.1 mph - N/A   Unknown
7:00 PM 59.0 °F 50.0 °F 72% 29.86 in 6.2 mi WSW 9.2 mph - N/A   Unknown
7:30 PM 57.2 °F 46.4 °F 67% 29.86 in 6.2 mi West 5.8 mph - N/A   Unknown
8:00 PM 57.2 °F 48.2 °F 72% 29.89 in 6.2 mi WSW 6.9 mph - N/A   Unknown
8:30 PM 57.2 °F 48.2 °F 72% 29.89 in 6.2 mi West 5.8 mph - N/A   Unknown
9:00 PM 57 °F 48 °F 64% 29.90 in - WSW 9.2 mph - -  
9:00 PM 57.2 °F 48.2 °F 72% 29.89 in 6.2 mi WSW 9.2 mph - N/A   Unknown
9:30 PM 57.2 °F 48.2 °F 72% 29.89 in 6.2 mi WSW 6.9 mph - N/A   Unknown
10:00 PM 57.2 °F 48.2 °F 72% 29.89 in 6.2 mi WSW 4.6 mph - N/A   Unknown
10:30 PM 57.2 °F 46.4 °F 67% 29.89 in 6.2 mi SSW 3.5 mph - N/A   Unknown
11:00 PM 57.2 °F 46.4 °F 67% 29.89 in 6.2 mi SW 5.8 mph - N/A   Unknown
11:30 PM 55.4 °F 46.4 °F 72% 29.89 in 6.2 mi Calm Calm - N/A   Unknown